Location: Willingham
(52.3167°N, 0.0667°E)
Time: 00:44:58
(UTC+00:00)

Okean O Rocket - Pass Details

Date: 19 May 2025
Orbit: 614 x 636 km, 98.0° (Epoch: 18 June)

Event Time Altitude Azimuth Distance (km) Brightness Sun altitude
Rises 21:35:25 0° 207° (SSW) 2,907 4.7 -11.5°
Reaches altitude 10° 21:38:15 10° 227° (SW) 2,001 4.1 -11.7°
Maximum altitude 21:41:13 18° 270° (W) 1,549 4.0 -12.0°
Drops below altitude 10° 21:44:12 10° 314° (NW) 2,003 5.5 -12.2°
Sets 21:47:02 0° 333° (NNW) 2,911 7.1 -12.4°
